www.pogodaiklimat.ru

Погода и климат >> Архив погоды >> Австралия >> Квинсленд >> Камоауил


ПОГОДА в Камоауиле

  • Прогноз погоды в Камоауиле
  • Монитор погоды в Камоауиле

АРХИВ ПОГОДЫ в Камоауиле

Время (UTC), дата Ветер
(напр.,м/с)
 
Видим.   Явления Облачность Т
(С)
Тd
(С)
f
(%)
Тe
(С)
Тes
(С)
Комфортность P
(гПа)
Po
(гПа)
Тmin
(С)
Tmax
(С)
R
(мм)
R24
(мм)
S
(см)
20 16.01 штиль 0 н/о н/о +25.2 +19.1 69 +30 +30 душно 1007.2 981.6
21 16.01 штиль 0 н/о н/о +26.5 +19.9 67 +32 +32 очень
душно
1008.0 982.4
23 16.01 З 3 н/о н/о +31.9 +18.5 45 +37 +37 очень
душно
1008.6 983.0
00 17.01 З 2 н/о н/о +33.8 +16.6 36 +37 +37 очень
душно
1008.4 982.8
02 17.01 С 3 н/о н/о +37.2 +14.5 26 +38 +38 душно 1007.1 981.5 +25.1
03 17.01 СЗ 3 н/о н/о +38.3 +12.8 22 +38 +38 очень
жарко
1005.9 980.3
05 17.01 СВ 5 н/о н/о +40.8 +10.9 17 +40 +40 очень
жарко
1003.4 977.9
06 17.01 ЮВ 2 н/о н/о +40.7 +10.0 16 +39 +39 очень
жарко
1002.4 976.9
08 17.01 ЮВ 5 н/о н/о +41.4 +10.5 16 +40 +40 очень
жарко
1001.3 975.8
09 17.01 В 4 н/о н/о +40.3 +11.4 18 +39 +39 очень
жарко
1001.7 976.2
11 17.01 С 2 н/о н/о +36.7 +13.5 25 +37 +37 очень
жарко
1003.4 977.9
12 17.01 С 3 н/о н/о +35.6 +13.7 27 +36 +36 очень
жарко
1004.1 978.6
14 17.01 С 6 н/о н/о +32.9 +20.4 48 +40 +40 очень
душно
1005.5 979.9 +42.3
15 17.01 СВ 4 н/о н/о +32.0 +19.9 49 +38 +38 очень
душно
1005.5 979.9
17 17.01 С 3 н/о н/о +29.8 +20.1 56 +36 +36 очень
душно
1004.9 979.3
18 17.01 С 3 н/о н/о +29.2 +19.8 57 +35 +35 очень
душно
1004.9 979.3
20 17.01 С 2 н/о н/о +27.9 +18.0 55 +32 +32 душно 1006.0 980.4
21 17.01 С 2 н/о н/о +27.8 +17.9 55 +32 +32 душно 1007.0 981.4
23 17.01 СЗ 4 н/о н/о +31.4 +19.1 48 +37 +37 очень
душно
1007.4 981.8
00 18.01 СЗ 4 н/о н/о +34.1 +18.6 40 +39 +39 очень
душно
1007.4 981.8
02 18.01 СЗ 3 н/о н/о +37.5 +16.4 29 +40 +40 очень
душно
1006.5 980.9 +27.5
03 18.01 С 3 н/о н/о +38.8 +14.6 24 +40 +40 очень
душно
1005.9 980.3
05 18.01 СВ 5 н/о н/о +40.0 +11.2 18 +39 +39 очень
жарко
1004.4 978.9
06 18.01 В 4 н/о н/о +40.7 +10.9 17 +40 +40 очень
жарко
1003.4 977.9
08 18.01 С 4 н/о н/о +40.5 +10.7 17 +39 +39 очень
жарко
1002.9 977.4
09 18.01 В 4 н/о н/о +40.2 +11.3 18 +39 +39 очень
жарко
1003.4 977.9
11 18.01 С 4 н/о н/о +37.5 +12.2 22 +37 +37 очень
жарко
1004.7 979.2
12 18.01 С 8 н/о н/о +35.4 +19.3 39 +41 +41 опасность
перегрева
1005.8 980.2
14 18.01 С 6 н/о н/о +32.7 +21.9 53 +41 +41 опасность
перегрева
1007.3 981.7 +42.4
15 18.01 С 5 н/о н/о +32.0 +20.6 51 +39 +39 очень
душно
1007.3 981.7
17 18.01 С 4 н/о н/о +30.6 +20.8 56 +38 +38 очень
душно
1006.9 981.3
18 18.01 С 3 н/о н/о +29.7 +20.5 58 +37 +37 очень
душно
1007.1 981.5
20 18.01 С 2 н/о н/о +28.8 +20.5 61 +36 +36 очень
душно
1008.2 982.6
21 18.01 С 2 н/о н/о +28.9 +20.4 60 +36 +36 очень
душно
1009.2 983.5
23 18.01 СЗ 2 н/о н/о +31.7 +20.9 53 +39 +39 очень
душно
1010.2 984.5
00 19.01 З 2 н/о н/о +33.2 +20.4 47 +40 +40 очень
душно
1010.2 984.5
02 19.01 СЗ 3 н/о н/о +37.6 +17.6 31 +41 +41 опасность
перегрева
1009.0 983.3 +28.6
03 19.01 СВ 3 н/о н/о +38.7 +16.3 27 +41 +41 опасность
перегрева
1007.7 982.1
05 19.01 СЗ 3 н/о н/о +40.9 +13.5 20 +41 +41 опасность
перегрева
1005.3 979.7
06 19.01 В 3 н/о н/о +41.0 +12.0 18 +40 +40 очень
жарко
1004.3 978.8
08 19.01 ЮВ 6 н/о н/о +41.9 +11.8 17 +41 +41 опасность
перегрева
1003.1 977.6
09 19.01 ЮВ 6 н/о н/о +41.2 +11.3 17 +40 +40 очень
жарко
1003.5 978.0
11 19.01 Ю 3 н/о н/о +37.5 +9.2 18 +36 +36 очень
жарко
1004.7 979.2
12 19.01 ЮВ 3 н/о н/о +35.4 +8.3 19 +34 +34 очень
жарко
1005.3 979.7
14 19.01 С 7 н/о н/о +33.8 +20.6 46 +41 +41 опасность
перегрева
1007.0 981.4 +42.8
15 19.01 С 5 н/о н/о +33.0 +20.5 48 +40 +40 очень
душно
1006.9 981.3
17 19.01 С 3 н/о н/о +31.8 +19.1 47 +37 +37 очень
душно
1006.8 981.2
18 19.01 С 1 н/о н/о +30.5 +18.2 48 +35 +35 очень
душно
1006.8 981.2
20 19.01 Ю 1 н/о н/о +29.0 +19.0 55 +34 +34 очень
душно
1007.3 981.7
21 19.01 СВ 2 н/о н/о +30.0 +18.8 51 +35 +35 очень
душно
1008.4 982.8
23 19.01 С 4 н/о н/о +33.8 +19.5 43 +39 +39 очень
душно
1009.6 983.9
00 20.01 С 4 н/о н/о +35.0 +19.0 39 +40 +40 очень
душно
1009.4 983.7
02 20.01 ЮЗ 3 н/о н/о +37.1 +17.6 32 +40 +40 очень
душно
1008.2 982.6 +29.1
03 20.01 З 4 н/о н/о +38.4 +17.2 29 +41 +41 опасность
перегрева
1007.2 981.6
05 20.01 В 3 н/о н/о +41.2 +13.7 20 +41 +41 опасность
перегрева
1004.6 979.1
06 20.01 ЮВ 6 н/о н/о +42.6 +10.5 15 +41 +41 опасность
перегрева
1003.5 978.0
08 20.01 ЮВ 5 н/о н/о +42.5 +7.1 12 +40 +40 очень
жарко
1002.6 977.1
09 20.01 ЮВ 5 н/о н/о +41.9 +6.7 12 +39 +39 очень
жарко
1003.1 977.6
11 20.01 С 8 н/о н/о +32.9 +22.4 54 +42 +42 опасность
перегрева
1006.5 980.9
12 20.01 С 7 н/о н/о +32.1 +22.5 57 +42 +42 опасность
перегрева
1007.5 981.9
14 20.01 С 5 н/о н/о +30.5 +22.4 62 +40 +40 очень
душно
1008.1 982.5 +43.4
15 20.01 С 4 н/о н/о +29.7 +21.9 63 +38 +38 очень
душно
1007.7 982.1
17 20.01 С 2 н/о н/о +28.6 +21.4 65 +36 +36 очень
душно
1006.6 981.0
18 20.01 СЗ 2 н/о н/о +28.1 +21.6 68 +36 +36 очень
душно
1006.5 980.9
20 20.01 С 2 н/о н/о +27.5 +21.1 68 +35 +35 очень
душно
1007.4 981.8
21 20.01 С 4 н/о н/о +27.8 +20.9 66 +35 +35 очень
душно
1008.3 982.7
23 20.01 СЗ 3 н/о н/о +30.7 +20.9 56 +38 +38 очень
душно
1009.2 983.5
00 21.01 СЗ 3 н/о н/о +32.7 +19.6 46 +38 +38 очень
душно
1009.1 983.4
02 21.01 СВ 5 н/о н/о +36.2 +17.4 33 +39 +39 очень
душно
1008.0 982.4 +27.5
03 21.01 С 3 н/о н/о +37.2 +16.2 29 +39 +39 очень
душно
1007.5 981.9
05 21.01 В 4 н/о н/о +38.6 +14.4 24 +39 +39 душно 1005.5 979.9
06 21.01 Ю 4 н/о н/о +39.3 +14.3 23 +40 +40 очень
душно
1004.6 979.1
08 21.01 ЮВ 4 н/о н/о +39.7 +13.3 21 +40 +40 очень
душно
1004.0 978.5
09 21.01 В 5 н/о н/о +39.3 +12.2 20 +39 +39 очень
жарко
1004.2 978.7
11 21.01 СВ 5 н/о н/о +37.2 +13.9 25 +38 +38 душно 1005.8 980.2
12 21.01 СВ 3 н/о н/о +36.1 +13.0 25 +36 +36 очень
жарко
1006.5 980.9
14 21.01 СВ 3 н/о н/о +33.0 +11.5 27 +33 +33 жарко 1006.9 981.3 +40.9
15 21.01 С 4 н/о н/о +32.3 +10.9 27 +32 +32 жарко 1006.7 981.1
17 21.01 С 4 н/о н/о +30.7 +20.6 55 +38 +38 очень
душно
1006.5 980.9
18 21.01 С 3 н/о н/о +29.7 +21.1 60 +37 +37 очень
душно
1006.7 981.1
20 21.01 С 3 н/о н/о +28.2 +22.0 69 +36 +36 очень
душно
1007.5 981.9
21 21.01 З 1 н/о н/о +28.4 +21.4 66 +36 +36 очень
душно
1008.4 982.8
23 21.01 С 1 н/о н/о +31.5 +20.8 53 +39 +39 очень
душно
1009.4 983.7
00 22.01 С 4 н/о н/о +33.7 +19.0 42 +39 +39 очень
душно
1009.3 983.6
02 22.01 С 5 н/о н/о +35.9 +16.1 31 +38 +38 очень
душно
1008.0 982.4 +27.8
03 22.01 С 3 н/о н/о +37.6 +16.5 29 +40 +40 очень
душно
1007.1 981.5
05 22.01 ЮВ 4 н/о н/о +39.4 +14.4 23 +40 +40 очень
душно
1005.5 979.9
06 22.01 СВ 4 н/о н/о +40.2 +13.7 21 +40 +40 очень
жарко
1004.7 979.2
08 22.01 СВ 5 н/о н/о +39.9 +14.1 22 +40 +40 очень
душно
1004.1 978.6
09 22.01 В 4 н/о н/о +38.9 +12.6 21 +39 +39 очень
жарко
1004.5 979.0
11 22.01 СВ 3 н/о н/о +36.8 +13.5 25 +37 +37 очень
жарко
1005.7 980.1
12 22.01 СВ 3 н/о н/о +35.6 +13.1 26 +36 +36 очень
жарко
1006.1 980.5
14 22.01 СВ 3 н/о н/о +33.1 +13.2 30 +34 +34 очень
жарко
1006.6 981.0 +41.1
15 22.01 С 4 н/о н/о +32.4 +13.1 31 +33 +33 жарко 1006.4 980.8
17 22.01 С 3 н/о н/о +30.9 +21.1 56 +38 +38 очень
душно
1005.6 980.0
18 22.01 СЗ 3 н/о н/о +30.3 +20.5 56 +37 +37 очень
душно
1005.6 980.0
20 22.01 С 2 н/о н/о +29.3 +20.2 58 +36 +36 очень
душно
1006.9 981.3
21 22.01 С 1 н/о н/о +29.2 +20.1 58 +36 +36 очень
душно
1007.8 982.2
23 22.01 З 3 н/о н/о +32.7 +21.2 51 +40 +40 очень
душно
1008.8 983.1
00 23.01 З 3 н/о н/о +34.2 +20.6 45 +41 +41 опасность
перегрева
1008.3 982.7
02 23.01 С 3 н/о н/о +36.4 +18.0 34 +40 +40 очень
душно
1006.9 981.3 +29.0
03 23.01 ЮВ 4 н/о н/о +38.5 +16.7 28 +41 +41 опасность
перегрева
1005.9 980.3
05 23.01 С 2 н/о н/о +39.7 +15.3 24 +41 +41 опасность
перегрева
1004.0 978.5
06 23.01 С 4 н/о н/о +40.0 +13.5 21 +40 +40 очень
душно
1003.0 977.5
08 23.01 С 3 н/о н/о +40.2 +14.4 22 +41 +41 опасность
перегрева
1002.1 976.6
09 23.01 СВ 3 н/о н/о +39.5 +13.8 22 +40 +40 очень
душно
1002.2 976.7
11 23.01 С 3 н/о н/о +37.3 +14.6 26 +38 +38 душно 1003.1 977.6
12 23.01 С 3 н/о н/о +36.5 +13.9 26 +37 +37 очень
жарко
1003.7 978.2
14 23.01 С 7 н/о н/о +33.4 +21.2 49 +41 +41 опасность
перегрева
1005.3 979.7 +41.8
15 23.01 С 7 н/о н/о +32.6 +19.8 47 +39 +39 очень
душно
1005.2 979.6
17 23.01 С 4 н/о н/о +31.2 +19.5 50 +37 +37 очень
душно
1005.1 979.5
18 23.01 С 3 н/о н/о +30.6 +19.9 53 +37 +37 очень
душно
1005.4 979.8

 

Местоположение метеостанции Камоауил (Квинсленд, Австралия): широта -19.91 долгота 138.11 высота над уровнем моря 231 м.

В архиве по умолчанию представлена погода в Камоауиле за последнюю неделю. Архивные данные за месяц целиком и за предыдущие месяцы, начиная с января 2011 года, Вы можете получить, выбрав интересующий диапазон дат из раскрывающегося списка и нажав кнопку "Ввод!".


*Определитесь, кто Вы:
робот инопланетянин человек

Внимание! Время в таблицах - всемирное. Для получения местного времени необходимо прибавить поправку, которая равна 10 ч.

Смотрите также архив погоды в соседних городах и на ближайших метеорологических станциях:

Погода на Руднике Century Mine (Квинсленд, Австралия) (143 км)
Погода в Нью Мэй Даун (Квинсленд, Австралия) (149 км)
Погода на Маунт-Айза (Квинсленд, Австралия) (167 км)
Погода на Озере Джулиус (Квинсленд, Австралия) (171 км)
Погода в Клонкарри (Квинсленд, Австралия) (263 км)
Погода в Фосфат-Хилл (Квинсленд, Австралия) (282 км)
Погода в Беркетауне (Квинсленд, Австралия) (283 км)
Погода в Аэропорту Трепелл (Квинсленд, Австралия) (358 км)
Погода на Острове Морнингтон (Квинсленд, Австралия) (378 км)
Погода в Джулия Крик (Квинсленд, Австралия) (387 км)

Пояснения к столбцам:

Ветер - указаны скорость ветра в м/с - средняя за 10 мин, порывы в срок и между сроками (в фигурных скобках) и направление, откуда дует ветер: С - северный, СВ - северо-восточный, В - восточный, ЮВ - юго-восточный, Ю - южный, ЮЗ - юго-западный, З - западный, СЗ - северо-западный.
Видимость - горизонтальная дальность видимости в метрах или километрах. При видимости от 1 до 10 км при отсутствии осадков обычно наблюдается дымка, при ухудшении видимости до 1 км и менее - туман. В сухую погоду видимость может ухудшаться дымом, пылью или мглою.
Явления - указаны атмосферные явления, наблюдавшиеся в срок или в последний час перед сроком; фигурными скобками обозначены явления, наблюдавшиеся между сроками (за 1-3 часа до срока); квадратными скобками обозначены град или гололедные отложения с указанием их диаметра в мм.
Облачность - указаны через наклонную черту общая и нижняя облачность в баллах и высота нижней границы облаков в метрах; квадратными скобками обозначены формы облаков: Ci - перистые, Cs - перисто-слоистые, Cc - перисто-кучевые, Ac - высококучевые, As - высокослоистые, Sc - слоисто-кучевые, Ns - слоисто-дождевые, Cu - кучевые, Cb - кучево-дождевые. Подробнее классификацию облаков см. в Атласе облаков (PDF).
T - Температура воздуха - температура, измеренная на высоте 2 м над землей.
Td - Температура точки росы - температура, при понижении до которой содержащийся в воздухе водяной пар достигнет насыщения.
f - Относительная влажность воздуха - влажноcть воздуха, измеренная на высоте 2 м над землей.
Te - Эффективная температура - температура, которую ощущает одетый по сезону человек в тени. Характеристика душности погоды. При расчете учитывается влияние влажности воздуха и скорости ветра на теплоощущения человека.
Tes - Эффективная температура на солнце - температура, которую ощущает человек, с поправкой на солнечный нагрев. Характеристика знойности погоды. Зависит от высоты солнца над горизонтом, облачности и скорости ветра. Ночью, в пасмурную погоду, а также при ветре 12 м/с и более поправка равна нулю.
P - Атмосферное давление - приведенное к уровню моря атмосферное давление.
Po - Атмосферное давление - измеренное на уровне метеостанции атмосферное давление.
Tmin - Минимальная температура - минимум температуры воздуха на высоте 2 м над землей.
Tmax - Максимальная температура - максимум температуры воздуха на высоте 2 м над землей.
R - Количество осадков - Количество выпавших осадков за период времени, мм. При наведении курсора мыши на число - период времени, за который выпало указанное количество осадков.
R24 - Количество осадков - Количество выпавших осадков за 24 часа, мм.
S - Снежный покров - Высота снежного покрова, см. При наведении курсора мыши на число - состояние снежного покрова и степень покрытия местности в баллах.